User: anonymous   Login
Location: Unspecified
(0.0000°N, 0.0000°E)
Time: 18:57:15
(UTC+00:00)
Language:

CHUBUSAT 2 - Orbit

View from above orbital plane
View from above orbital plane
View from above satellite
View from above satellite

Ground track
Ground track

The orbit data is extracted from the following two-line orbital elements,

1 41338U 16012B   19340.75727761  .00000226  00000-0  10826-4 0  9999
2 41338  31.0022 137.5784 0013825 356.9243   3.1306 15.00216537208626
Epoch (UTC): 06 December 2019 18:10:28
Eccentricity: 0.0013825
inclination: 31.0022°
perigee height: 556 km
apogee height: 576 km
right ascension of ascending node: 137.5784°
argument of perigee: 356.9243°
revolutions per day: 15.00216537
mean anomaly at epoch: 3.1306°
orbit number at epoch: 20862

The dashed part of the orbit path shows where the satellite is in the earth's shadow,  

DLR